Regional Weather Roundup
Issued by NWS

Home | Current Version | Previous Version | Text Only | Print | Product List | Glossary On
Versions: 1 2 3 4 5 6 7 8 9 10 11 12 13 14 15 16 17 18 19 20 21 22 23 24 25 26 27 28 29 30 31 32 33 34 35 36 37 38 39 40 41 42 43 44 45 46 47 48 49 50
000
ASUS43 KLSX 051010
RWRMO

WEATHER SUMMARY FOR MISSOURI
NATIONAL WEATHER SERVICE SPRINGFIELD MO
500 AM CDT WED AUG 05 2015

NOTE: "FAIR" INDICATES FEW OR NO CLOUDS BELOW 12,000 FEET WITH NO
       SIGNIFICANT WEATHER AND/OR OBSTRUCTIONS TO VISIBILITY.
       CURRENT SKY AND/OR WEATHER CONDITIONS ARE NOT AVAILABLE FOR
       CHILLICOTHE AND FARMINGTON.

MOZ001>031-035>038-043-044-053-054-051100-
...NORTHERN AND WESTERN MISSOURI...

CITY           SKY/WX    TMP DP  RH WIND       PRES   REMARKS
KANSAS CTY INT CLOUDY    70  69  97 E7        29.98S
KANSAS C DTWN  CLOUDY    72  69  90 E5        29.98R
LEE`S SUMMIT   LGT RAIN  69  67  93 E7        29.99S
ST JOSEPH      MOCLDY    69  67  93 CALM      29.98S
CHILLICOTHE      N/A     71  69  93 E5        30.00F
KIRKSVILLE     PTCLDY    64  62  93 CALM      30.02S

$$
MOZ066>068-077>081-088>096-101>105-051100-
...SOUTHWEST MISSOURI...

CITY           SKY/WX    TMP DP  RH WIND       PRES   REMARKS
SPRINGFIELD    MOCLDY    71  67  87 SE13      29.96F
JOPLIN         MOCLDY    72  70  93 SE7       29.93F

$$
MOZ032>034-039>042-045>050-055>058-069>072-051100-
...CENTRAL MISSOURI...

CITY           SKY/WX    TMP DP  RH WIND       PRES   REMARKS
COLUMBIA       CLOUDY    70  67  90 CALM      30.00F
JEFFERSON CITY CLOUDY    70  66  87 CALM      29.99F
ROLLA          CLOUDY    68  66  93 SE3       30.00F
SEDALIA        CLOUDY    71  69  93 CALM      30.02R
WHITEMAN AFB   CLOUDY    68  68 100 CALM      29.99S
WARRENSBURG    LGT RAIN  68  64  88 E7        29.99S
OSAGE BEACH    CLOUDY    70  66  88 NE5       30.02R

$$
MOZ051-052-059>065-051100-
...EAST CENTRAL MISSOURI...

CITY           SKY/WX    TMP DP  RH WIND       PRES   REMARKS
ST LOUIS INTL  MOCLDY    76  66  71 E9        29.99F
SPIRIT OF STL  CLOUDY    74  70  87 E3        29.97S
ST CHARLES     CLOUDY    72  67  84 E6        29.97F

$$
MOZ072>076-082>087-097>100-106>115-051100-
...SOUTH CENTRAL AND SOUTHEAST MISSOURI...

CITY           SKY/WX    TMP DP  RH WIND       PRES   REMARKS
CAPE GIRARDEAU CLOUDY    75  73  93 E5        29.97R
POPLAR BLUFF   CLOUDY    76  67  73 W5        29.95S
WEST PLAINS    TSTM      68  65  90 E5        30.01F

$$



USA.gov is the U.S. government's official web portal to all federal, state and local government web resources and services.